<?xml version="1.0" encoding="UTF-8" standalone="no" ?>
<gpx xmlns="http://www.topografix.com/GPX/1/1" xmlns:xsi="http://www.w3.org/2001/XMLSchema-instance" xsi:schemaLocation="http://www.topografix.com/GPX/1/1 http://www.topografix.com/GPX/1/1/gpx.xsd" version="1.1" creator="VisuGPX - https://www.visugpx.com">
  <metadata>
    <name>Montfaucon_BoucleMoine_21.6km</name>
    <desc><![CDATA[gnerando idor:9396038_9396073]]></desc>
  </metadata>
  <trk>
    <name><![CDATA[Montfaucon_MontignéStCrespin_21.6km-9396038]]></name>
    <extensions>
      <line xmlns="http://www.topografix.com/GPX/gpx_style/0/2">
        <color>0000FF</color>
        <width>4</width>
      </line>
    </extensions>
    <trkseg>
      <trkpt lat="47.09873" lon="-1.12748">
        <ele>44</ele>
        <time>2023-11-05T14:13:09Z</time>
      </trkpt>
      <trkpt lat="47.0979" lon="-1.12643">
        <ele>34</ele>
        <time>2023-11-05T14:15:35Z</time>
      </trkpt>
      <trkpt lat="47.09715" lon="-1.12596">
        <ele>35</ele>
        <time>2023-11-05T14:17:24Z</time>
      </trkpt>
      <trkpt lat="47.09655" lon="-1.12565">
        <ele>36</ele>
        <time>2023-11-05T14:18:49Z</time>
      </trkpt>
      <trkpt lat="47.09604" lon="-1.1249">
        <ele>39</ele>
        <time>2023-11-05T14:20:25Z</time>
      </trkpt>
      <trkpt lat="47.09537" lon="-1.12237">
        <ele>49</ele>
        <time>2023-11-05T14:24:32Z</time>
      </trkpt>
      <trkpt lat="47.09423" lon="-1.12404">
        <ele>46</ele>
        <time>2023-11-05T14:28:07Z</time>
      </trkpt>
      <trkpt lat="47.09248" lon="-1.12317">
        <ele>54</ele>
        <time>2023-11-05T14:32:13Z</time>
      </trkpt>
      <trkpt lat="47.08983" lon="-1.12238">
        <ele>68</ele>
        <time>2023-11-05T14:38:14Z</time>
      </trkpt>
      <trkpt lat="47.08771" lon="-1.12262">
        <ele>84</ele>
        <time>2023-11-05T14:42:58Z</time>
      </trkpt>
      <trkpt lat="47.08556" lon="-1.12308">
        <ele>84</ele>
        <time>2023-11-05T14:47:48Z</time>
      </trkpt>
      <trkpt lat="47.08495" lon="-1.12295">
        <ele>86</ele>
        <time>2023-11-05T14:49:10Z</time>
      </trkpt>
      <trkpt lat="47.08427" lon="-1.12085">
        <ele>89</ele>
        <time>2023-11-05T14:52:41Z</time>
      </trkpt>
      <trkpt lat="47.08439" lon="-1.11918">
        <ele>87</ele>
        <time>2023-11-05T14:55:14Z</time>
      </trkpt>
      <trkpt lat="47.08496" lon="-1.11673">
        <ele>92</ele>
        <time>2023-11-05T14:59:09Z</time>
      </trkpt>
      <trkpt lat="47.08646" lon="-1.11789">
        <ele>88</ele>
        <time>2023-11-05T15:02:55Z</time>
      </trkpt>
      <trkpt lat="47.08847" lon="-1.1176">
        <ele>78</ele>
        <time>2023-11-05T15:07:25Z</time>
      </trkpt>
      <trkpt lat="47.08919" lon="-1.11726">
        <ele>75</ele>
        <time>2023-11-05T15:09:06Z</time>
      </trkpt>
      <trkpt lat="47.09016" lon="-1.11555">
        <ele>75</ele>
        <time>2023-11-05T15:12:28Z</time>
      </trkpt>
      <trkpt lat="47.09174" lon="-1.11529">
        <ele>69</ele>
        <time>2023-11-05T15:16:00Z</time>
      </trkpt>
      <trkpt lat="47.09271" lon="-1.11607">
        <ele>66</ele>
        <time>2023-11-05T15:18:28Z</time>
      </trkpt>
      <trkpt lat="47.09287" lon="-1.1167">
        <ele>66</ele>
        <time>2023-11-05T15:19:29Z</time>
      </trkpt>
      <trkpt lat="47.09365" lon="-1.11595">
        <ele>65</ele>
        <time>2023-11-05T15:21:33Z</time>
      </trkpt>
      <trkpt lat="47.09508" lon="-1.11295">
        <ele>64</ele>
        <time>2023-11-05T15:27:06Z</time>
      </trkpt>
      <trkpt lat="47.09568" lon="-1.11099">
        <ele>59</ele>
        <time>2023-11-05T15:30:21Z</time>
      </trkpt>
      <trkpt lat="47.09655" lon="-1.10895">
        <ele>49</ele>
        <time>2023-11-05T15:34:00Z</time>
      </trkpt>
      <trkpt lat="47.09734" lon="-1.10857">
        <ele>39</ele>
        <time>2023-11-05T15:35:51Z</time>
      </trkpt>
      <trkpt lat="47.09745" lon="-1.1079">
        <ele>38</ele>
        <time>2023-11-05T15:36:53Z</time>
      </trkpt>
      <trkpt lat="47.0971" lon="-1.10781">
        <ele>43</ele>
        <time>2023-11-05T15:37:41Z</time>
      </trkpt>
      <trkpt lat="47.09703" lon="-1.1074">
        <ele>46</ele>
        <time>2023-11-05T15:38:19Z</time>
      </trkpt>
      <trkpt lat="47.09718" lon="-1.10678">
        <ele>46</ele>
        <time>2023-11-05T15:39:19Z</time>
      </trkpt>
      <trkpt lat="47.09672" lon="-1.10659">
        <ele>57</ele>
        <time>2023-11-05T15:40:23Z</time>
      </trkpt>
      <trkpt lat="47.09665" lon="-1.10621">
        <ele>57</ele>
        <time>2023-11-05T15:40:59Z</time>
      </trkpt>
      <trkpt lat="47.09552" lon="-1.10626">
        <ele>72</ele>
        <time>2023-11-05T15:43:29Z</time>
      </trkpt>
      <trkpt lat="47.09494" lon="-1.10553">
        <ele>79</ele>
        <time>2023-11-05T15:45:11Z</time>
      </trkpt>
      <trkpt lat="47.09364" lon="-1.10134">
        <ele>78</ele>
        <time>2023-11-05T15:52:10Z</time>
      </trkpt>
      <trkpt lat="47.09327" lon="-1.1002">
        <ele>79</ele>
        <time>2023-11-05T15:54:04Z</time>
      </trkpt>
      <trkpt lat="47.08929" lon="-1.0997">
        <ele>84</ele>
        <time>2023-11-05T16:02:57Z</time>
      </trkpt>
      <trkpt lat="47.08849" lon="-1.10022">
        <ele>85</ele>
        <time>2023-11-05T16:04:54Z</time>
      </trkpt>
      <trkpt lat="47.08813" lon="-1.09867">
        <ele>85</ele>
        <time>2023-11-05T16:07:23Z</time>
      </trkpt>
      <trkpt lat="47.089" lon="-1.09657">
        <ele>84</ele>
        <time>2023-11-05T16:11:06Z</time>
      </trkpt>
      <trkpt lat="47.09136" lon="-1.09463">
        <ele>84</ele>
        <time>2023-11-05T16:17:07Z</time>
      </trkpt>
      <trkpt lat="47.09235" lon="-1.09337">
        <ele>79</ele>
        <time>2023-11-05T16:20:02Z</time>
      </trkpt>
      <trkpt lat="47.09277" lon="-1.09035">
        <ele>74</ele>
        <time>2023-11-05T16:24:42Z</time>
      </trkpt>
      <trkpt lat="47.09339" lon="-1.08694">
        <ele>64</ele>
        <time>2023-11-05T16:30:03Z</time>
      </trkpt>
      <trkpt lat="47.09336" lon="-1.08395">
        <ele>54</ele>
        <time>2023-11-05T16:34:34Z</time>
      </trkpt>
      <trkpt lat="47.09392" lon="-1.08379">
        <ele>52</ele>
        <time>2023-11-05T16:35:51Z</time>
      </trkpt>
      <trkpt lat="47.09516" lon="-1.08426">
        <ele>51</ele>
        <time>2023-11-05T16:38:41Z</time>
      </trkpt>
      <trkpt lat="47.09607" lon="-1.08501">
        <ele>50</ele>
        <time>2023-11-05T16:41:01Z</time>
      </trkpt>
      <trkpt lat="47.09707" lon="-1.08572">
        <ele>49</ele>
        <time>2023-11-05T16:43:29Z</time>
      </trkpt>
      <trkpt lat="47.09727" lon="-1.08659">
        <ele>47</ele>
        <time>2023-11-05T16:44:52Z</time>
      </trkpt>
      <trkpt lat="47.0977" lon="-1.087">
        <ele>45</ele>
        <time>2023-11-05T16:46:01Z</time>
      </trkpt>
      <trkpt lat="47.09803" lon="-1.08647">
        <ele>42</ele>
        <time>2023-11-05T16:47:06Z</time>
      </trkpt>
      <trkpt lat="47.09838" lon="-1.08468">
        <ele>46</ele>
        <time>2023-11-05T16:49:55Z</time>
      </trkpt>
      <trkpt lat="47.09917" lon="-1.08441">
        <ele>43</ele>
        <time>2023-11-05T16:51:43Z</time>
      </trkpt>
      <trkpt lat="47.09966" lon="-1.08427">
        <ele>57</ele>
        <time>2023-11-05T16:52:50Z</time>
      </trkpt>
      <trkpt lat="47.1" lon="-1.08261">
        <ele>64</ele>
        <time>2023-11-05T16:55:27Z</time>
      </trkpt>
      <trkpt lat="47.10058" lon="-1.08185">
        <ele>70</ele>
        <time>2023-11-05T16:57:11Z</time>
      </trkpt>
      <trkpt lat="47.1017" lon="-1.08227">
        <ele>85</ele>
        <time>2023-11-05T16:59:45Z</time>
      </trkpt>
      <trkpt lat="47.10171" lon="-1.08397">
        <ele>88</ele>
        <time>2023-11-05T17:02:20Z</time>
      </trkpt>
      <trkpt lat="47.10119" lon="-1.08781">
        <ele>86</ele>
        <time>2023-11-05T17:08:16Z</time>
      </trkpt>
      <trkpt lat="47.10241" lon="-1.09073">
        <ele>84</ele>
        <time>2023-11-05T17:13:27Z</time>
      </trkpt>
      <trkpt lat="47.10299" lon="-1.09118">
        <ele>84</ele>
        <time>2023-11-05T17:14:54Z</time>
      </trkpt>
      <trkpt lat="47.10417" lon="-1.09275">
        <ele>84</ele>
        <time>2023-11-05T17:18:27Z</time>
      </trkpt>
      <trkpt lat="47.10381" lon="-1.0928">
        <ele>83</ele>
        <time>2023-11-05T17:19:15Z</time>
      </trkpt>
      <trkpt lat="47.10325" lon="-1.09405">
        <ele>80</ele>
        <time>2023-11-05T17:21:31Z</time>
      </trkpt>
      <trkpt lat="47.10218" lon="-1.09395">
        <ele>79</ele>
        <time>2023-11-05T17:23:54Z</time>
      </trkpt>
      <trkpt lat="47.10198" lon="-1.09599">
        <ele>74</ele>
        <time>2023-11-05T17:27:01Z</time>
      </trkpt>
      <trkpt lat="47.10101" lon="-1.09711">
        <ele>73</ele>
        <time>2023-11-05T17:29:46Z</time>
      </trkpt>
      <trkpt lat="47.09948" lon="-1.09996">
        <ele>61</ele>
        <time>2023-11-05T17:35:16Z</time>
      </trkpt>
      <trkpt lat="47.09883" lon="-1.10042">
        <ele>55</ele>
        <time>2023-11-05T17:36:52Z</time>
      </trkpt>
      <trkpt lat="47.09889" lon="-1.10109">
        <ele>53</ele>
        <time>2023-11-05T17:37:53Z</time>
      </trkpt>
      <trkpt lat="47.09842" lon="-1.10114">
        <ele>49</ele>
        <time>2023-11-05T17:38:56Z</time>
      </trkpt>
      <trkpt lat="47.09807" lon="-1.10139">
        <ele>45</ele>
        <time>2023-11-05T17:39:48Z</time>
      </trkpt>
      <trkpt lat="47.09784" lon="-1.10124">
        <ele>43</ele>
        <time>2023-11-05T17:40:22Z</time>
      </trkpt>
      <trkpt lat="47.09817" lon="-1.10395">
        <ele>49</ele>
        <time>2023-11-05T17:44:32Z</time>
      </trkpt>
      <trkpt lat="47.09907" lon="-1.10577">
        <ele>55</ele>
        <time>2023-11-05T17:47:56Z</time>
      </trkpt>
      <trkpt lat="47.09966" lon="-1.10544">
        <ele>64</ele>
        <time>2023-11-05T17:49:20Z</time>
      </trkpt>
      <trkpt lat="47.1002" lon="-1.10534">
        <ele>68</ele>
        <time>2023-11-05T17:50:33Z</time>
      </trkpt>
      <trkpt lat="47.10097" lon="-1.10466">
        <ele>73</ele>
        <time>2023-11-05T17:52:33Z</time>
      </trkpt>
      <trkpt lat="47.1019" lon="-1.10349">
        <ele>72</ele>
        <time>2023-11-05T17:55:16Z</time>
      </trkpt>
      <trkpt lat="47.10265" lon="-1.10397">
        <ele>71</ele>
        <time>2023-11-05T17:57:05Z</time>
      </trkpt>
      <trkpt lat="47.10366" lon="-1.10404">
        <ele>71</ele>
        <time>2023-11-05T17:59:20Z</time>
      </trkpt>
      <trkpt lat="47.10453" lon="-1.10263">
        <ele>74</ele>
        <time>2023-11-05T18:02:13Z</time>
      </trkpt>
      <trkpt lat="47.1049" lon="-1.10325">
        <ele>76</ele>
        <time>2023-11-05T18:03:28Z</time>
      </trkpt>
      <trkpt lat="47.10513" lon="-1.10439">
        <ele>78</ele>
        <time>2023-11-05T18:05:16Z</time>
      </trkpt>
      <trkpt lat="47.10583" lon="-1.1053">
        <ele>80</ele>
        <time>2023-11-05T18:07:21Z</time>
      </trkpt>
      <trkpt lat="47.10668" lon="-1.10585">
        <ele>76</ele>
        <time>2023-11-05T18:09:25Z</time>
      </trkpt>
      <trkpt lat="47.10752" lon="-1.10671">
        <ele>74</ele>
        <time>2023-11-05T18:11:41Z</time>
      </trkpt>
      <trkpt lat="47.10629" lon="-1.10773">
        <ele>67</ele>
        <time>2023-11-05T18:14:50Z</time>
      </trkpt>
      <trkpt lat="47.10577" lon="-1.10859">
        <ele>66</ele>
        <time>2023-11-05T18:16:34Z</time>
      </trkpt>
      <trkpt lat="47.10568" lon="-1.10958">
        <ele>67</ele>
        <time>2023-11-05T18:18:05Z</time>
      </trkpt>
      <trkpt lat="47.10539" lon="-1.11032">
        <ele>67</ele>
        <time>2023-11-05T18:19:23Z</time>
      </trkpt>
      <trkpt lat="47.10542" lon="-1.11127">
        <ele>70</ele>
        <time>2023-11-05T18:20:49Z</time>
      </trkpt>
      <trkpt lat="47.10485" lon="-1.11303">
        <ele>67</ele>
        <time>2023-11-05T18:23:46Z</time>
      </trkpt>
      <trkpt lat="47.10339" lon="-1.11698">
        <ele>62</ele>
        <time>2023-11-05T18:30:34Z</time>
      </trkpt>
      <trkpt lat="47.10172" lon="-1.1192">
        <ele>62</ele>
        <time>2023-11-05T18:35:35Z</time>
      </trkpt>
      <trkpt lat="47.1018" lon="-1.12111">
        <ele>65</ele>
        <time>2023-11-05T18:38:29Z</time>
      </trkpt>
      <trkpt lat="47.1028" lon="-1.12075">
        <ele>69</ele>
        <time>2023-11-05T18:40:46Z</time>
      </trkpt>
      <trkpt lat="47.1037" lon="-1.12226">
        <ele>71</ele>
        <time>2023-11-05T18:43:48Z</time>
      </trkpt>
      <trkpt lat="47.10478" lon="-1.12165">
        <ele>76</ele>
        <time>2023-11-05T18:46:23Z</time>
      </trkpt>
      <trkpt lat="47.10587" lon="-1.12024">
        <ele>82</ele>
        <time>2023-11-05T18:49:37Z</time>
      </trkpt>
      <trkpt lat="47.10636" lon="-1.11916">
        <ele>84</ele>
        <time>2023-11-05T18:51:35Z</time>
      </trkpt>
      <trkpt lat="47.10646" lon="-1.11847">
        <ele>84</ele>
        <time>2023-11-05T18:52:39Z</time>
      </trkpt>
      <trkpt lat="47.10756" lon="-1.11678">
        <ele>84</ele>
        <time>2023-11-05T18:56:11Z</time>
      </trkpt>
      <trkpt lat="47.1087" lon="-1.1174">
        <ele>82</ele>
        <time>2023-11-05T18:58:53Z</time>
      </trkpt>
      <trkpt lat="47.10914" lon="-1.11778">
        <ele>79</ele>
        <time>2023-11-05T19:00:01Z</time>
      </trkpt>
      <trkpt lat="47.10952" lon="-1.11859">
        <ele>77</ele>
        <time>2023-11-05T19:01:31Z</time>
      </trkpt>
      <trkpt lat="47.1085" lon="-1.12008">
        <ele>77</ele>
        <time>2023-11-05T19:04:43Z</time>
      </trkpt>
      <trkpt lat="47.10791" lon="-1.12058">
        <ele>77</ele>
        <time>2023-11-05T19:06:14Z</time>
      </trkpt>
      <trkpt lat="47.10673" lon="-1.12248">
        <ele>79</ele>
        <time>2023-11-05T19:10:07Z</time>
      </trkpt>
      <trkpt lat="47.10727" lon="-1.12259">
        <ele>75</ele>
        <time>2023-11-05T19:11:20Z</time>
      </trkpt>
      <trkpt lat="47.10794" lon="-1.12228">
        <ele>72</ele>
        <time>2023-11-05T19:12:54Z</time>
      </trkpt>
      <trkpt lat="47.10963" lon="-1.123">
        <ele>60</ele>
        <time>2023-11-05T19:16:48Z</time>
      </trkpt>
      <trkpt lat="47.11038" lon="-1.12367">
        <ele>62</ele>
        <time>2023-11-05T19:18:46Z</time>
      </trkpt>
      <trkpt lat="47.11033" lon="-1.12441">
        <ele>61</ele>
        <time>2023-11-05T19:19:53Z</time>
      </trkpt>
      <trkpt lat="47.10894" lon="-1.12417">
        <ele>62</ele>
        <time>2023-11-05T19:23:00Z</time>
      </trkpt>
      <trkpt lat="47.10749" lon="-1.12448">
        <ele>58</ele>
        <time>2023-11-05T19:26:15Z</time>
      </trkpt>
      <trkpt lat="47.10719" lon="-1.12552">
        <ele>61</ele>
        <time>2023-11-05T19:27:58Z</time>
      </trkpt>
      <trkpt lat="47.1065" lon="-1.1264">
        <ele>56</ele>
        <time>2023-11-05T19:30:00Z</time>
      </trkpt>
      <trkpt lat="47.10589" lon="-1.1278">
        <ele>55</ele>
        <time>2023-11-05T19:32:31Z</time>
      </trkpt>
      <trkpt lat="47.10689" lon="-1.1289">
        <ele>66</ele>
        <time>2023-11-05T19:35:18Z</time>
      </trkpt>
      <trkpt lat="47.10975" lon="-1.13203">
        <ele>81</ele>
        <time>2023-11-05T19:43:14Z</time>
      </trkpt>
      <trkpt lat="47.11064" lon="-1.13422">
        <ele>81</ele>
        <time>2023-11-05T19:47:05Z</time>
      </trkpt>
      <trkpt lat="47.1114" lon="-1.13468">
        <ele>83</ele>
        <time>2023-11-05T19:48:55Z</time>
      </trkpt>
      <trkpt lat="47.11096" lon="-1.13666">
        <ele>80</ele>
        <time>2023-11-05T19:52:04Z</time>
      </trkpt>
      <trkpt lat="47.11082" lon="-1.13896">
        <ele>80</ele>
        <time>2023-11-05T19:55:34Z</time>
      </trkpt>
      <trkpt lat="47.11292" lon="-1.1394">
        <ele>83</ele>
        <time>2023-11-05T20:00:17Z</time>
      </trkpt>
      <trkpt lat="47.11642" lon="-1.14357">
        <ele>91</ele>
        <time>2023-11-05T20:10:18Z</time>
      </trkpt>
      <trkpt lat="47.11554" lon="-1.15117">
        <ele>91</ele>
        <time>2023-11-05T20:21:58Z</time>
      </trkpt>
      <trkpt lat="47.11368" lon="-1.14992">
        <ele>93</ele>
        <time>2023-11-05T20:26:31Z</time>
      </trkpt>
      <trkpt lat="47.11295" lon="-1.14977">
        <ele>92</ele>
        <time>2023-11-05T20:28:10Z</time>
      </trkpt>
      <trkpt lat="47.11066" lon="-1.15096">
        <ele>90</ele>
        <time>2023-11-05T20:33:34Z</time>
      </trkpt>
      <trkpt lat="47.10977" lon="-1.14923">
        <ele>89</ele>
        <time>2023-11-05T20:36:51Z</time>
      </trkpt>
      <trkpt lat="47.10656" lon="-1.14717">
        <ele>88</ele>
        <time>2023-11-05T20:44:38Z</time>
      </trkpt>
      <trkpt lat="47.10513" lon="-1.14275">
        <ele>83</ele>
        <time>2023-11-05T20:52:03Z</time>
      </trkpt>
      <trkpt lat="47.10159" lon="-1.14082">
        <ele>79</ele>
        <time>2023-11-05T21:00:26Z</time>
      </trkpt>
      <trkpt lat="47.09987" lon="-1.1367">
        <ele>67</ele>
        <time>2023-11-05T21:07:45Z</time>
      </trkpt>
      <trkpt lat="47.09839" lon="-1.13394">
        <ele>65</ele>
        <time>2023-11-05T21:13:05Z</time>
      </trkpt>
      <trkpt lat="47.09788" lon="-1.13174">
        <ele>61</ele>
        <time>2023-11-05T21:16:36Z</time>
      </trkpt>
      <trkpt lat="47.09853" lon="-1.13057">
        <ele>49</ele>
        <time>2023-11-05T21:18:53Z</time>
      </trkpt>
      <trkpt lat="47.09849" lon="-1.12975">
        <ele>44</ele>
        <time>2023-11-05T21:20:08Z</time>
      </trkpt>
      <trkpt lat="47.09903" lon="-1.12934">
        <ele>42</ele>
        <time>2023-11-05T21:21:29Z</time>
      </trkpt>
      <trkpt lat="47.09829" lon="-1.1281">
        <ele>41</ele>
        <time>2023-11-05T21:23:59Z</time>
      </trkpt>
      <trkpt lat="47.09875" lon="-1.12794">
        <ele>44</ele>
        <time>2023-11-05T21:25:02Z</time>
      </trkpt>
      <trkpt lat="47.09891" lon="-1.12765">
        <ele>46</ele>
        <time>2023-11-05T21:25:36Z</time>
      </trkpt>
    </trkseg>
  </trk>
</gpx>